Weather Roundup
Issued by NWS Chicago, IL

Home | Current Version | Previous Version | Text Only | Print | Product List | Glossary On
Versions: 1 2 3 4 5 6 7 8 9 10 11 12 13 14 15 16 17 18 19 20 21 22 23 24 25 26 27 28 29 30 31 32 33 34 35 36 37 38 39 40 41 42 43 44 45 46 47 48 49 50
000
NZUS59 KLOT 182111
HRRLOT

CHICAGO AREA WEATHER ROUNDUP
NATIONAL WEATHER SERVICE CHICAGO/ROMEOVILLE IL
300 PM CST WED JAN 18 2017

NOTE: "FAIR" INDICATES FEW OR NO CLOUDS BELOW 12,000 FEET WITH NO
SIGNIFICANT WEATHER AND/OR OBSTRUCTIONS TO VISIBILITY.

* THESE STATIONS ARE NOT UNDER NWS QUALITY CONTROL. THEY ALSO MAY NOT
  REPORT WEATHER SUCH AS PRECIPITATION OR FOG.

ILZ005-006-012>014-019>023-182200-
NORTHEAST ILLINOIS

CITY           SKY/WX    TMP DP  RH WIND       PRES   REMARKS
OHARE          CLOUDY    36  32  85 W12       30.05F
MIDWAY         CLOUDY    36  31  82 SW9       30.06F
AURORA         CLOUDY    37  32  82 SW8       30.06F
LANSING*       CLOUDY    38  35  91 SW13      30.08S
JOLIET*        CLOUDY    38  34  84 S7        30.08S
WAUKEGAN       CLOUDY    36  32  85 SW10G18   30.03S FOG
DUPAGE AIRPORT CLOUDY    36  31  82 SW10      30.05F
WHEELING       CLOUDY    36  30  79 SW7       30.07R
KANKAKEE*      CLOUDY    39  35  84 SW9       30.10R
MORRIS*        CLOUDY    37  33  84 SW10      30.07S
LEWIS AIRPORT* CLOUDY    36  35  96 SW6       30.07S
NORTHERLY ISL    N/A     37  32  82 W7          N/A
$$

WIZ051-052-058>065-066-070>072-182200-
SOUTHEAST WISCONSIN

CITY           SKY/WX    TMP DP  RH WIND       PRES   REMARKS
MILWAUKEE      CLOUDY    36  31  82 W12G21    30.02F
KENOSHA*       CLOUDY    35  32  88 W14       30.04R FOG     WCI  26
RACINE*        CLOUDY    35  30  82 W6        30.05R WCI  30
WAUKESHA       CLOUDY    32  30  93 W12       30.03R WCI  23
WEST BEND      CLOUDY    34  32  93 SW15G22   29.98F WCI  24
$$

INZ001>003-010>013-019-020-182200-
NORTHWEST INDIANA

CITY           SKY/WX    TMP DP  RH WIND       PRES   REMARKS
GARY*          PTSUNNY   39  32  75 MISG      30.08F
MICHIGAN CITY* NOT AVBL
RENSSELAER*    NOT AVBL
VALPARAISO     CLOUDY    37  34  89 SW13      30.09S
$$

LMZ740>746-182200-
SOUTHERN LAKE MICHIGAN

STATION/POSITION TIME  SKY/WX   TEMP WIND        PRES    VSBY
                                AIR  DIR/SP/G
                 (UTC)          (F)  (DEG/KT/KT) (MB)    (MI)
HARRISON CRIB    2040            37  220/ 16/ 20   N/A
BURNHAM HARBOR   2100            37  260/  8/ 15   N/A
CALUMET HARBOR   2048            37  220/  8/ 14 1017.5F
BURNS HARBOR     2040            36  220/ 12/ 16 1019.0F
MICHIGAN CITY    NOT AVBL
$$

ABBREVIATIONS USED IN REMARKS
   TC - TEMPERATURE IN CELSIUS
  WCI - WIND CHILL INDEX
   HX - HEAT INDEX
  VSB - VISIBILITY
$$




USA.gov is the U.S. government's official web portal to all federal, state and local government web resources and services.